This is the latest recevied weather packets stored in our database for station/object OE3BCB-14. If no packets are shown the sender has not sent any weather packets the latest 1 day(s).
| Time | Temp. | Humidity | Pressure | Rain* | Wind** | Luminosity | Snow |
|---|---|---|---|---|---|---|---|
| 1777973658 | 31.67° C | 32% | 1010.2 hPa | - | 0.45 m/s, 0° | 353 W/m² | - |
| 1777973356 | 30.56° C | 33% | 1010.2 hPa | - | 0.89 m/s, 45° | 357 W/m² | - |
| 1777973053 | 30.56° C | 33% | 1010.2 hPa | - | 8.94 m/s, 45° | 365 W/m² | - |
| 1777972449 | 30.56° C | 34% | 1010.4 hPa | - | 0 m/s | 276 W/m² | - |
| 1777971844 | 30.56° C | 35% | 1010.5 hPa | - | 0 m/s | 388 W/m² | - |
| 1777971541 | 30° C | 36% | 1010.7 hPa | - | 0 m/s | 357 W/m² | - |
| 1777971239 | 30.56° C | 36% | 1010.6 hPa | - | 0.45 m/s, 45° | 414 W/m² | - |
| 1777970936 | 29.44° C | 37% | 1010.7 hPa | - | 0 m/s | 195 W/m² | - |
| 1777970634 | 29.44° C | 37% | 1010.7 hPa | - | 0.45 m/s, 135° | 256 W/m² | - |
| 1777970332 | 28.33° C | 39% | 1010.7 hPa | - | 0 m/s | 417 W/m² | - |
| 1777970029 | 27.78° C | 39% | 1010.8 hPa | - | 0 m/s | 275 W/m² | - |
| 1777969727 | 28.33° C | 39% | 1010.8 hPa | - | 0 m/s | 331 W/m² | - |
| 1777969424 | 27.22° C | 40% | 1010.8 hPa | - | 0.89 m/s, 0° | 347 W/m² | - |
| 1777969122 | 27.22° C | 40% | 1010.9 hPa | - | 0.45 m/s, 45° | 394 W/m² | - |
| 1777968820 | 26.67° C | 42% | 1010.9 hPa | - | 0.89 m/s, 315° | 331 W/m² | - |
| 1777968517 | 26.67° C | 42% | 1011 hPa | - | 0 m/s | 357 W/m² | - |
| 1777968215 | 25.56° C | 44% | 1011.1 hPa | - | 0 m/s | 335 W/m² | - |
| 1777967912 | 25° C | 43% | 1011.1 hPa | - | 0.45 m/s, 315° | 295 W/m² | - |
| 1777967610 | 23.89° C | 44% | 1011.1 hPa | - | 0 m/s | 243 W/m² | - |
| 1777967308 | - | - | - | - | 0 m/s | - | - |
| 1777967005 | 21.11° C | 44% | 1011.1 hPa | - | 0 m/s | 154 W/m² | - |
| 1777966703 | 21.11° C | 44% | 1011.1 hPa | - | 0 m/s | 106 W/m² | - |
| 1777966400 | 21.11° C | 45% | 1011.1 hPa | - | 0 m/s | 30 W/m² | - |
| 1777966098 | 20.56° C | 45% | 1011.2 hPa | - | 0 m/s | 30 W/m² | - |
| 1777965795 | 20.56° C | 45% | 1011.3 hPa | - | 0 m/s | 28 W/m² | - |
* Rain since midnight (hover to see other rain measurements)
** Current wind speed in m/s (hover to see current wind gust speed)